Theta_e
296 293 288 288 289 289 289 288 288 290 289 288 288 289 293 296 294 294 295 294 294 295 297 297 299 300 300 302 302 303 305 307 304 303 302 302 302 302 302 303 302 302 302 301
294 287 289 290 290 288 288 287 287 289 288 287 286 287 292 292 291 291 293 294 293 294 295 296 298 299 299 300 300 302 302 305 303 303 303 304 303 302 303 302 302 301 302 301
289 287 289 288 287 288 286 284 284 283 286 284 284 288 290 290 289 289 291 292 292 293 293 295 295 297 298 298 298 299 301 302 302 302 301 301 301 301 301 301 300 300 300 300
287 288 287 287 284 285 285 284 283 282 284 282 282 282 286 286 287 288 290 291 291 292 293 294 294 295 296 296 298 299 300 300 301 301 301 300 300 299 300 300 300 299 299 298
284 285 285 284 283 284 283 284 283 282 282 281 280 281 287 285 285 287 289 289 290 291 292 293 293 293 294 295 296 298 299 299 299 300 300 300 300 300 300 299 298 298 298 297
285 287 286 284 285 285 285 282 280 280 281 281 272 276 285 285 283 287 288 289 289 289 291 292 293 293 294 295 296 297 296 296 297 298 299 300 300 299 298 297 297 296 296 296
283 283 285 285 284 285 284 285 284 282 281 280 268 275 285 286 285 285 285 287 289 290 290 291 292 293 293 293 294 294 294 294 294 295 295 296 296 297 297 295 294 293 293 293
282 283 283 283 282 281 280 280 280 274 276 277 268 277 283 283 284 285 287 288 289 290 290 291 292 292 292 292 291 292 292 292 291 292 292 292 292 294 293 292 292 291 291 291
281 281 282 282 282 282 279 282 277 271 263 273 278 281 283 284 284 285 285 286 287 287 288 289 291 292 292 291 290 290 290 290 290 290 290 290 290 290 290 289 289 290 289 289
280 281 278 281 282 281 280 280 278 278 274 273 277 273 281 284 284 283 283 283 284 286 287 287 289 290 291 291 290 289 289 289 289 289 289 289 289 289 289 289 288 288 288 288
280 281 282 279 279 280 279 279 277 277 276 275 273 278 287 284 280 278 280 282 283 283 284 285 286 288 289 290 290 289 288 288 288 288 289 288 288 288 288 288 288 288 288 287
283 280 279 282 279 281 279 280 279 277 275 274 272 276 282 279 277 277 280 282 284 283 283 284 285 286 287 288 289 289 289 288 288 288 288 287 287 287 287 287 287 288 287 288
283 280 278 281 277 278 277 278 277 276 276 275 274 277 275 278 282 282 279 282 282 281 282 283 284 285 285 286 286 288 289 289 289 287 286 286 286 286 286 287 287 287 287 287
285 278 279 277 281 277 276 277 278 277 276 276 276 279 281 280 279 279 280 280 280 281 282 283 283 284 285 284 283 284 288 290 288 286 285 285 285 286 286 286 286 286 286 285
283 278 275 276 276 272 275 275 275 273 277 275 277 275 279 279 277 277 277 279 280 280 281 282 282 283 284 282 281 281 283 285 286 285 283 284 285 286 285 284 285 285 285 285
281 277 271 273 273 273 272 275 276 274 275 272 274 273 276 276 275 278 279 280 279 278 279 280 281 282 282 281 281 280 280 281 282 281 281 283 284 284 283 283 283 284 283 283
278 275 273 273 268 270 272 274 275 274 274 274 273 275 274 275 276 277 278 278 277 278 279 279 280 281 281 281 280 279 279 280 279 279 279 280 280 280 280 280 280 281 281 282
272 273 272 273 269 269 278 276 276 276 274 273 274 275 275 276 277 278 280 278 277 278 279 279 280 280 282 282 279 278 276 276 276 277 278 279 279 278 279 279 279 280 281 281
279 277 273 270 268 273 276 274 275 275 273 274 273 274 275 276 277 279 279 279 279 279 280 280 281 281 282 282 282 279 277 278 276 276 278 279 279 278 278 278 278 280 281 281
277 278 276 265 268 270 273 276 279 278 271 274 274 273 273 274 270 274 278 279 279 279 280 280 281 282 281 282 283 282 280 279 278 279 279 280 280 278 278 279 279 281 281 280
273 274 272 272 270 272 275 277 278 270 271 274 274 274 274 272 274 277 278 277 278 279 280 280 280 280 280 281 282 281 281 281 282 282 281 281 280 279 279 279 280 280 279 279
273 271 270 268 268 267 276 276 273 273 275 274 275 275 273 274 275 276 276 276 277 278 279 279 279 279 280 280 280 280 280 282 282 282 280 280 280 280 280 279 280 279 278 277
271 276 275 274 274 274 275 274 275 276 274 274 274 275 275 274 274 275 275 276 277 277 278 279 278 278 279 279 279 278 279 280 281 281 280 279 279 279 279 279 278 278 278 277
274 274 274 274 273 273 274 275 276 276 275 276 276 275 275 273 274 274 275 276 276 277 276 277 276 276 276 278 278 278 278 278 278 278 278 279 277 278 278 277 278 277 277 276
276 274 273 272 272 273 274 275 275 276 276 276 276 275 274 274 274 274 275 275 276 276 276 276 275 275 275 276 276 276 276 277 276 276 276 277 277 277 277 276 276 276 277 277
274 274 273 273 272 272 273 276 277 275 275 275 274 274 275 274 273 274 274 275 275 275 276 275 275 275 274 274 274 275 275 275 274 275 276 277 275 276 276 275 275 278 278 279
Wind_Speed
6 10 8 8 6 3 3 3 6 3 6 9 5 15 18 11 10 12 10 7 7 6 1 1 4 6 8 6 8 7 6 9 7 6 5 5 5 5 4 4 4 4 3 4
6 7 6 4 5 2 5 4 5 5 5 7 9 22 16 7 5 8 8 6 5 3 2 3 5 6 7 8 8 7 6 7 8 5 4 2 3 3 3 3 4 4 4 4
7 2 6 2 6 5 6 4 5 5 12 1 16 8 3 3 3 3 1 2 1 2 2 3 5 6 7 9 10 9 6 6 7 6 3 3 2 2 3 4 3 3 3 3
7 5 3 5 5 5 2 4 3 4 7 4 8 5 2 6 9 10 11 11 7 4 3 4 6 7 8 9 8 7 5 3 4 5 5 7 5 5 3 3 3 3 2 2
4 7 7 7 5 4 2 2 3 1 2 2 5 3 2 3 6 10 12 12 12 5 5 6 6 6 6 7 7 6 4 1 2 5 6 5 5 3 3 4 5 4 3 2
4 2 4 5 3 3 4 1 2 2 1 1 2 4 3 5 5 9 13 15 13 11 6 6 6 6 6 6 6 5 4 2 2 4 5 7 6 5 5 5 4 3 2 2
1 2 2 3 2 2 4 3 2 1 1 1 2 5 6 6 7 7 11 13 12 10 6 7 8 8 7 7 6 5 5 4 4 4 3 3 4 5 5 5 4 4 3 2
4 0 4 6 4 1 4 3 1 5 3 4 1 6 3 6 5 5 5 9 10 10 8 9 10 10 9 8 7 6 6 6 5 5 4 3 4 3 3 3 3 2 3 3
4 1 2 4 2 3 2 2 2 6 2 3 3 6 3 4 6 10 14 16 14 15 15 14 12 11 11 10 10 8 8 8 6 6 5 5 5 5 4 5 4 3 3 3
2 4 1 1 1 6 2 4 1 1 3 5 3 5 7 3 3 7 20 17 17 17 16 15 13 13 12 11 10 10 10 10 9 8 7 6 6 6 5 5 5 5 4 5
3 1 2 2 4 3 2 2 3 2 2 4 4 4 4 1 6 8 13 13 12 13 16 16 16 14 14 14 13 12 12 12 11 10 9 8 7 7 6 6 6 6 5 5
1 1 4 1 3 1 1 2 3 3 3 1 3 8 6 6 3 4 10 11 12 10 11 12 15 16 16 16 15 16 14 13 12 11 10 10 8 8 8 8 7 6 6 6
3 1 4 3 3 1 4 4 2 2 0 8 7 6 3 3 8 6 6 10 12 12 14 14 15 15 17 17 16 16 16 15 13 11 10 10 10 9 9 8 7 7 7 7
2 2 5 7 3 2 5 7 8 6 5 7 12 16 16 14 13 13 15 14 12 10 12 14 15 16 16 16 14 16 16 14 13 11 11 11 11 10 9 8 8 8 7 7
2 5 2 7 6 4 6 12 10 12 10 9 15 8 10 8 8 9 12 10 10 14 15 16 17 16 16 16 14 12 13 12 9 9 8 10 10 10 9 9 9 8 7 7
1 2 1 6 2 5 9 19 11 16 13 11 16 17 2 6 6 9 14 9 13 17 18 17 17 18 18 18 15 14 12 10 8 10 12 10 8 7 8 9 8 8 8 8
3 5 2 5 5 8 9 9 8 4 4 3 4 3 5 8 13 14 12 11 15 16 18 18 18 17 17 17 14 15 12 10 8 10 10 8 8 8 8 7 8 8 10 8
6 4 1 4 3 5 2 1 1 2 4 1 4 6 9 9 11 15 7 9 14 16 18 18 16 18 19 18 16 12 9 9 10 10 10 10 8 8 7 7 9 9 8 8
2 3 2 4 4 9 1 2 1 2 2 6 7 10 12 13 14 10 12 15 16 17 17 16 15 16 17 17 16 10 13 9 7 11 12 10 9 9 8 8 9 8 7 8
2 3 3 2 4 7 3 2 2 1 6 6 8 11 14 16 14 12 19 18 20 20 17 19 20 18 19 20 18 16 13 11 11 13 12 11 10 10 9 9 7 7 8 8
4 3 9 8 6 11 2 5 2 4 4 7 8 12 14 12 13 22 21 21 19 19 21 22 20 19 20 21 21 18 17 15 16 13 8 11 10 9 8 7 7 6 7 8
8 9 7 3 5 10 4 2 4 4 5 9 11 13 16 18 20 21 20 19 20 22 22 21 18 18 19 19 18 19 19 17 16 14 11 12 11 8 6 8 7 7 7 8
5 6 2 10 4 4 6 8 2 4 7 9 13 15 16 18 19 19 19 20 20 21 19 18 18 20 19 18 16 18 19 18 18 15 14 11 10 7 7 7 7 6 7 7
5 4 4 2 5 8 6 1 3 6 8 11 12 15 16 18 18 19 17 17 17 17 17 17 18 19 20 18 18 16 18 17 16 16 14 10 9 8 7 6 6 7 8 7
1 5 4 3 2 3 6 6 8 9 10 10 12 15 16 17 18 18 16 16 15 16 15 16 16 17 19 18 17 16 16 16 15 14 11 9 8 7 7 7 7 8 8 8
6 4 4 2 5 1 4 7 8 8 12 11 13 16 15 14 17 17 15 14 14 15 16 16 16 16 18 17 17 16 14 13 13 13 10 8 7 7 6 6 7 16 18 17
Wind_Direction
34 61 42 15 2 327 303 320 326 352 20 326 348 301 287 291 265 259 247 228 223 224 158 329 353 355 346 344 332 309 258 214 192 190 196 215 218 205 210 214 211 214 207 204
56 57 353 308 8 30 25 356 358 288 23 338 334 291 298 334 332 333 323 282 262 235 244 353 350 351 357 343 339 322 272 219 204 208 212 230 192 205 207 186 187 197 204 206
89 10 305 203 34 25 49 19 6 323 320 71 326 279 323 59 356 358 2 321 287 276 304 323 343 348 349 353 345 331 303 234 207 203 174 159 146 152 181 184 178 164 183 194
70 351 14 58 69 352 32 3 318 341 356 349 353 297 343 358 54 55 43 17 334 310 309 337 344 348 352 348 343 343 333 251 223 208 217 221 227 211 190 181 170 169 170 178
39 12 13 45 26 344 25 348 19 40 76 229 4 249 295 353 33 17 12 12 10 332 325 329 335 336 333 339 344 344 349 340 225 224 244 232 228 214 177 182 186 192 185 170
72 60 30 355 326 355 315 262 51 104 146 143 24 340 287 27 345 351 359 3 359 349 320 316 322 318 323 328 333 337 330 322 268 230 221 226 222 206 203 204 212 214 212 179
8 49 66 2 295 218 339 302 323 321 349 321 58 264 275 1 19 358 345 344 349 344 325 315 309 310 309 309 309 308 302 279 290 266 241 232 228 223 221 204 206 203 202 212
12 14 13 352 45 352 31 359 27 301 298 332 146 240 97 350 12 36 27 5 5 355 333 314 306 304 300 293 284 277 265 257 250 242 236 224 206 211 203 207 212 226 236 235
342 279 106 35 12 328 96 93 83 103 99 256 308 273 253 138 48 57 27 6 1 355 354 337 320 304 295 288 283 282 279 270 261 255 241 230 223 216 212 206 216 227 237 250
133 294 76 121 172 57 3 114 190 109 276 271 227 272 269 242 11 12 1 359 350 350 348 343 332 318 298 281 273 264 255 254 248 239 234 232 225 221 220 220 223 221 224 226
144 258 157 197 186 151 144 183 55 327 281 274 295 236 204 150 54 356 338 338 340 333 338 336 334 325 311 291 268 254 247 246 244 237 234 232 228 225 224 229 227 227 230 233
126 164 272 342 105 339 305 258 210 228 218 245 319 273 48 90 66 315 322 334 334 331 324 322 331 329 329 311 287 264 252 245 241 239 236 236 235 230 232 232 232 231 240 239
168 217 303 234 161 157 230 198 173 95 252 218 262 256 122 100 359 13 321 331 332 329 332 332 330 331 323 319 302 281 259 248 244 238 234 236 236 234 237 238 235 233 242 248
187 217 227 249 275 50 243 204 205 201 230 267 236 272 292 355 355 346 341 334 329 328 334 331 330 325 319 316 299 284 270 251 242 235 235 237 234 235 238 239 238 240 242 253
207 241 245 262 256 217 256 255 207 205 233 244 272 275 315 353 332 311 302 304 324 336 333 327 322 319 318 319 307 296 274 258 243 239 233 235 234 235 234 235 236 241 246 253
151 239 200 284 35 250 265 263 241 230 248 259 274 283 104 299 290 310 315 333 330 332 327 322 318 321 323 323 313 304 281 260 233 230 234 233 231 225 227 238 240 244 251 253
189 166 173 252 348 320 266 257 188 176 191 192 237 42 335 335 331 323 325 332 332 322 322 323 321 318 313 310 306 300 294 288 250 243 243 240 237 237 238 239 243 242 249 255
143 134 212 290 317 228 14 128 126 150 79 274 306 327 332 316 299 289 298 322 325 321 316 313 311 312 311 309 304 293 284 269 268 252 245 246 241 242 243 238 237 243 245 248
216 149 221 271 242 315 214 117 135 232 147 22 348 341 338 335 314 314 345 319 302 299 296 297 299 302 301 301 304 297 287 270 257 261 250 243 227 235 233 237 239 242 247 248
218 39 263 135 251 284 77 39 358 92 235 8 354 342 335 337 324 325 319 311 310 311 311 314 316 314 311 310 314 302 285 284 259 252 250 253 227 221 225 231 237 247 244 256
167 203 236 231 262 278 337 327 266 239 17 347 335 331 324 312 294 302 314 318 318 317 317 316 320 319 316 315 313 308 298 282 280 280 253 259 235 224 218 230 231 238 244 253
186 171 205 152 229 266 4 198 246 15 342 330 327 315 306 300 303 309 316 317 317 316 316 318 318 313 311 312 316 312 305 308 296 286 261 260 247 228 217 222 226 229 241 252
250 219 210 206 235 104 64 97 81 324 307 310 307 310 312 310 309 312 315 314 312 310 311 313 312 312 310 313 315 311 311 313 304 290 272 261 243 233 227 233 242 247 241 245
224 167 234 205 159 160 122 78 272 282 283 303 310 311 316 310 309 307 304 306 306 307 308 309 310 310 308 313 313 308 309 308 305 295 287 276 245 237 235 233 246 251 244 244
203 153 182 248 180 198 243 299 308 309 307 307 311 308 306 305 298 296 295 297 301 302 304 305 308 306 305 312 312 311 310 308 304 298 293 283 267 255 248 240 241 241 244 239
184 187 201 271 126 343 273 296 302 311 310 305 303 304 296 293 295 297 295 296 298 299 304 304 306 307 307 311 310 312 312 311 307 307 307 306 291 275 255 255 266 249 256 260